Regional Weather Roundup
Issued by NWS

Home | Current Version | Previous Version | Graphics & Text | Print | Product List | Glossary On
Versions: 1 2 3 4 5 6 7 8 9 10 11 12 13 14 15 16 17 18 19 20 21 22 23 24 25 26 27 28 29 30 31 32 33 34 35 36 37 38 39 40 41 42 43 44 45 46 47 48 49 50
000
ASUS43 KMPX 180401
RWRMN
WEATHER ROUNDUP FOR MINNESOTA
NATIONAL WEATHER SERVICE TWIN CITIES/CHANHASSEN MN
1000 PM CST SUN DEC 17 2017


NOTE: "FAIR" INDICATES FEW OR NO CLOUDS BELOW 12,000 FEET WITH NO
SIGNIFICANT WEATHER AND/OR OBSTRUCTIONS TO VISIBILITY. N/A MEANS
CURRENT SKY AND/OR WEATHER CONDITIONS ARE NOT AVAILABLE.

MNZ060>063-068>070-180500-
   Twin Cities Metro

CITY           SKY/WX    TMP DP  RH WIND       PRES   REMARKS
TWIN CITIES    CLOUDY    27  25  92 S7        29.96F FOG     WCI  19
ST PAUL        CLOUDY    26  25  96 S6        29.97F FOG     WCI  19
CRYSTAL        CLOUDY    27  21  78 S6        29.94F HAZE    WCI  20
BLAINE         CLOUDY    28  28 100 CALM      29.95F FOG
LAKEVILLE        N/A     25  25 100 CALM      29.96F FOG
EDEN PRAIRIE   CLOUDY    27  23  85 S7        29.94F FOG     WCI  19
SOUTH ST PAUL  CLOUDY    27  26  96 S3        29.96F FOG
LAKE ELMO      CLOUDY    27  27 100 SW5       29.96F FOG     WCI  21
$$
MNZ001>005-007-008-013>017-022>024-027-028-180500-
   Northwest Minnesota

CITY           SKY/WX    TMP DP  RH WIND       PRES   REMARKS
BEMIDJI        CLOUDY    25  24  97 S6        29.82S WCI  18
HALLOCK        CLOUDY    25  23  93 S20       29.71F WCI  11
ROSEAU         MOCLDY    25  19  80 S16       29.73F HAZE    WCI  12
WARROAD        PTCLDY    19  16  86 S6        29.74F WCI  11
THIEF RVR FALL CLOUDY    27  26  96 S16G23    29.78F FOG     WCI  15
CROOKSTON      CLOUDY    28  28 100 S16       29.79F FOG     WCI  17
FOSSTON        LGT SNOW  23  21  93 S10       29.82F WCI  12
DETROIT LAKES  CLOUDY    28  28 100 S8        29.85F FOG     WCI  20
MOORHEAD       CLOUDY    28  28 100 S13       29.84F FOG     WCI  18
PARK RAPIDS    CLOUDY    25  23  92 S8        29.85S FOG     WCI  16
MAHNOMEN       CLOUDY    25  24  96 S15       29.82F FOG     WCI  13
$$
MNZ006-009>011-018-025>026-180500-
   North Central Minnesota

CITY           SKY/WX    TMP DP  RH WIND       PRES   REMARKS
BAUDETTE       MOCLDY    21  20  96 S7        29.76F WCI  12
FLAG ISLAND    CLEAR     10   9  92 SE7       29.72F WCI   0
INTL FALLS     CLEAR     24  21  88 VRB5      29.80F FOG     WCI  18
WASKISH        PTCLDY    25  23  93 S7        29.80S WCI  17
BIG FORK       CLOUDY    27  25  93 S9G16     29.83F WCI  17
LONGVILLE      CLOUDY    25  25 100 S6        29.86F FOG     WCI  18
GRAND RAPIDS   CLOUDY    25  24  96 S8        29.87F WCI  16
CRANE LAKE     CLOUDY    25  21  86 S7        29.85F WCI  17
ORR            CLOUDY    25  21  86 S5        29.81F WCI  19
COOK           CLOUDY    23  21  93 SW9       29.85S WCI  13
WALKER         CLOUDY    26  24  93 S5        29.84F WCI  20
$$
MNZ012-019>021-037-180500-
   Northeast Minnesota

CITY           SKY/WX    TMP DP  RH WIND       PRES   REMARKS
DULUTH         CLOUDY    24  21  88 SW6       29.88F WCI  17
ELY            CLOUDY    21  21 100 SW6       29.84F WCI  14
HIBBING        CLOUDY    23  22  96 SW3       29.86F
EVELETH        CLOUDY    23  20  90 SW7       29.87F WCI  14
DULUTH HARBOR  CLOUDY    27  23  86 SW8       29.93F WCI  18
TWO HARBORS    CLOUDY    28  25  86 SW6       29.87F WCI  22
SILVER BAY     CLOUDY    25  23  93 CALM      29.87S
GRAND MARAIS     N/A     28  23  81 NW3       29.89F
G MARAIS ARPRT CLOUDY    19  16  86 CALM      29.83F FOG
$$
MNZ029>031-032-039>041-046>048-054>057-064-180500-
   West Central Minnesota

CITY           SKY/WX    TMP DP  RH WIND       PRES   REMARKS
FERGUS FALLS   CLEAR     23  23 100 S8        29.90S FOG     WCI  14
WHEATON        CLOUDY    30  27  86 SE9       29.89S WCI  22
MORRIS         CLOUDY    28  27  93 S9        29.88F FOG     WCI  20
ALEXANDRIA     CLOUDY    27  25  92 S7        29.88F WCI  19
ELBOW LAKE     MOCLDY    24  23  99 SE9       29.88S WCI  14
WADENA         FOG       25  25 100 S6        29.87S VSB 1   WCI  18
GLENWOOD       CLOUDY    27  25  93 S10       29.90S FOG     WCI  17
APPLETON       CLOUDY    30  27  86 S7        29.89F WCI  23
BENSON         CLOUDY    28  25  86 S9        29.92F FOG     WCI  20
ORTONVILLE     CLOUDY    28  27  93 SE3       29.89S
MADISON        CLOUDY    34  28  80 S3        29.90F
WILLMAR        CLOUDY    28  27  93 S3        29.94S
$$
MNZ033>034-036-042>043-049>051-058-059-180500-
   Central Minnesota

CITY           SKY/WX    TMP DP  RH WIND       PRES   REMARKS
ST CLOUD       CLOUDY    24  21  88 S5        29.93F WCI  18
SAUK CENTRE    CLOUDY    25  23  94 S6        29.91S FOG     WCI  18
PAYNESVILLE    CLOUDY    27  24  90 S5        29.92F WCI  22
AITKIN         CLOUDY    25  21  86 S6        29.88F WCI  18
PINE RIVER     CLOUDY    25  23  93 S6        29.90F FOG     WCI  18
BRAINERD       CLOUDY    26  21  81 S8        29.90S WCI  18
STAPLES        CLOUDY    25  25 100 S6        29.88F FOG     WCI  18
LONG PRAIRIE   CLOUDY    25  23  93 SE6       29.90F FOG     WCI  18
LITTLE FALLS   CLOUDY    23  18  80 SE3       29.92F
LITCHFIELD     CLOUDY    28  25  86 CALM      29.94S
BUFFALO        CLOUDY    25  22  85 CALM      29.96S
MAPLE LAKE     CLOUDY    26  24  90 CALM      29.95S
HUTCHINSON     CLOUDY    27  24  89 CALM      29.95F
$$
MNZ037-044-045-052-053-180500-
   East Central Minnesota

CITY           SKY/WX    TMP DP  RH WIND       PRES   REMARKS
PRINCETON      CLOUDY    25  21  86 CALM      29.94S
MORA           CLOUDY    16  14  93 CALM      29.95F
CAMBRIDGE      CLOUDY    25  21  86 CALM      29.95S
RUSH CITY      CLOUDY    23  22  94 CALM      29.96S FOG
MOOSE LAKE     CLOUDY    25  21  86 SW5       29.91S WCI  19
HINCKLEY       CLOUDY    21  19  93 CALM      29.94S FOG
CLOQUET        CLOUDY    25  19  80 S5        29.90S WCI  19
MCGREGOR       CLOUDY    27  23  86 S5        29.90S WCI  21
$$
MNZ071>073-080-081-089-090-097-098-180500-
   Southwest Minnesota

CITY           SKY/WX    TMP DP  RH WIND       PRES   REMARKS
MONTEVIDEO     CLOUDY    28  27  93 S6        29.91F WCI  22
GRANITE FALLS  CLOUDY    31  27  86 SE6       29.94F WCI  25
CANBY          CLOUDY    36  31  83 S3        29.91F
MARSHALL       CLOUDY    32  28  85 SW9       29.92F WCI  24
REDWOOD FALLS  CLOUDY    29  25  85 S7        29.93F WCI  22
OLIVIA         CLOUDY    30  27  86 S5        29.93S WCI  25
PIPESTONE      CLOUDY    30  27  86 SW8       29.90F WCI  23
WINDOM           N/A     27  16  63 S5        29.93F HAZE    WCI  21
WORTHINGTON    CLOUDY    27  26  96 SW8       29.93F FOG     WCI  19
JACKSON        CLOUDY    23  21  93 SW5       29.94F FOG     WCI  17
SLAYTON        CLOUDY    30  28  90 SW6       29.92F WCI  24
$$
MNZ065>067-074>077-082>085-091>093-180500-
   South Central Minnesota

CITY           SKY/WX    TMP DP  RH WIND       PRES   REMARKS
MANKATO        CLOUDY    25  24  96 S5        29.96F FOG     WCI  19
NEW ULM        CLOUDY    27  21  80 S6        29.95S WCI  20
ST JAMES       CLOUDY    25  21  86 S5        29.96F WCI  19
FAIRMONT       CLOUDY    22  20  92 SW5       29.96F WCI  16
GLENCOE        CLOUDY    27  27 100 S3        29.94F FOG
FARIBAULT      CLOUDY    27  27 100 CALM      29.95F FOG
OWATONNA       CLOUDY    28  27  93 CALM      29.96S FOG
WASECA         CLOUDY    28  27  93 S7        29.97S FOG     WCI  21
$$
MNZ078>079-086>088-094>096-180500-
   Southeast Minnesota

CITY           SKY/WX    TMP DP  RH WIND       PRES   REMARKS
ROCHESTER      CLOUDY    29  28  96 W8        29.95S FOG     WCI  21
RED WING       CLOUDY    27  25  93 CALM      29.96F FOG
STANTON        FOG       28  26  93 CALM      29.95F VSB 3/4
DODGE CENTER   CLOUDY    28  27  93 SW5       29.94F FOG     WCI  23
WINONA         CLOUDY    32  30  93 CALM      29.98S
PRESTON        CLOUDY    28  27  96 SW3       29.95S FOG
$$
ABBREVIATIONS USED IN REMARKS
   TC - TEMPERATURES IN CELSIUS
  WCI - WIND CHILL INDEX
   HX - HEAT INDEX
  VSB - VISIBILITY
$$




USA.gov is the U.S. government's official web portal to all federal, state and local government web resources and services.